Weather History for KCAG - August, 2013

Change the Weather History Date:

Friday, August 2, 2013

  Actual Average Record
Temperature  
Mean Temperature 68 °F 68 °F  
Max Temperature 89 °F 88 °F 102 °F (2011)
Min Temperature 47 °F 48 °F 40 °F (2014)
Degree Days  
Heating Degree Days 0 0  
Month to date heating degree days 0 0  
Since 1 June heating degree days 88 200  
Since 1 July heating degree days 0 25  
Cooling Degree Days 3 3  
Month to date cooling degree days 5 6  
Year to date cooling degree days 237 95  
Since 1 June cooling degree days 237 95  
Growing Degree Days 18 (Base 50)    
Moisture  
Dew Point 43 °F    
Average Humidity 49    
Maximum Humidity 80    
Minimum Humidity 17    
Precipitation  
Precipitation 0.00 in 0.04 in 0.18 in (2015)
Month to date precipitation T 0.07  
Year to date precipitation 5.52 8.74  
Sea Level Pressure  
Sea Level Pressure 29.94 in    
Wind  
Wind Speed 7 mph (SW)    
Max Wind Speed 20 mph    
Max Gust Speed 26 mph    
Visibility 10 miles    
Events      
T = Trace of Precipitation, MM = Missing Value Source: NWS Daily Summary

Daily Weather History Graph

Daily Weather History Graph

Search for Another Location

Airport or City:

Trip Planner

Search our weather history database for the weather conditions in past years. The results will help you decide how hot, cold, wet, or windy it might be!

Date:

Astronomy

Aug. 02, 2013 Rise Set
Actual Time 6:08 AM MDT 8:23 PM MDT
Civil Twilight 5:38 AM MDT 8:53 PM MDT
Nautical Twilight 5:00 AM MDT 9:31 PM MDT
Astronomical Twilight 4:19 AM MDT 10:12 PM MDT
Moon 2:31 AM MDT (8/2) 5:23 PM MDT (8/2)
Length of Visible Light 15h 15m
Length of Day
14h 14m
Waning Crescent, 15% of the Moon is Illuminated
Aug 2
Waning Crescent
Aug 6
New
Aug 14
First Quarter
Aug 20
Full
Aug 28
Last Quarter

Hourly Weather History & Observations

Time (MDT) Temp. Dew Point Humidity Pressure Visibility Wind Dir Wind Speed Gust Speed Precip Events Conditions
12:53 AM 54.0 °F 44.1 °F 69% 29.96 in 10.0 mi Calm Calm - N/A   Clear
1:53 AM 52.0 °F 45.0 °F 77% 29.96 in 10.0 mi Calm Calm - N/A   Clear
2:53 AM 50.0 °F 44.1 °F 80% 29.95 in 10.0 mi Calm Calm - N/A   Clear
3:53 AM 52.0 °F 45.0 °F 77% 29.94 in 10.0 mi East 3.5 mph - N/A   Clear
4:53 AM 50.0 °F 45.0 °F 83% 29.95 in 10.0 mi Calm Calm - N/A   Clear
5:53 AM 48.0 °F 43.0 °F 83% 30.00 in 10.0 mi Calm Calm - N/A   Clear
6:53 AM 51.1 °F 45.0 °F 80% 30.00 in 10.0 mi Calm Calm - N/A   Clear
7:53 AM 60.1 °F 48.0 °F 64% 29.99 in 10.0 mi Variable 3.5 mph - N/A   Clear
8:53 AM 66.9 °F 48.0 °F 51% 29.98 in 10.0 mi ENE 9.2 mph - N/A   Clear
9:53 AM 73.0 °F 48.0 °F 41% 29.97 in 10.0 mi North 4.6 mph - N/A   Clear
10:53 AM 78.1 °F 48.9 °F 36% 29.99 in 10.0 mi Calm Calm - N/A   Clear
11:53 AM 82.0 °F 45.0 °F 27% 29.98 in 10.0 mi SSW 6.9 mph - N/A   Partly Cloudy
12:53 PM 84.9 °F 37.9 °F 19% 29.95 in 10.0 mi West 12.7 mph 19.6 mph N/A   Scattered Clouds
1:53 PM 86.0 °F 39.9 °F 20% 29.94 in 10.0 mi West 12.7 mph 24.2 mph N/A   Clear
2:53 PM 88.0 °F 42.1 °F 20% 29.92 in 10.0 mi SW 16.1 mph 21.9 mph N/A   Partly Cloudy
3:03 PM 87.8 °F 42.8 °F 21% 30.14 in 10.0 mi West 8.1 mph - N/A   Partly Cloudy
3:53 PM 87.1 °F 39.0 °F 18% 29.89 in 10.0 mi West 9.2 mph 19.6 mph N/A   Partly Cloudy
4:53 PM 89.1 °F 39.0 °F 17% 29.87 in 10.0 mi West 13.8 mph - N/A   Mostly Cloudy
5:53 PM 88.0 °F 37.0 °F 16% 29.88 in 10.0 mi WSW 13.8 mph 20.7 mph N/A   Clear
6:53 PM 82.0 °F 39.9 °F 22% 29.89 in 10.0 mi SSW 11.5 mph - N/A   Partly Cloudy
7:53 PM 77.0 °F 42.1 °F 29% 29.89 in 10.0 mi SSW 6.9 mph - N/A   Partly Cloudy
8:53 PM 75.9 °F 39.0 °F 26% 29.89 in 10.0 mi South 10.4 mph - N/A   Partly Cloudy
9:53 PM 75.0 °F 39.0 °F 27% 29.90 in 10.0 mi South 10.4 mph - N/A   Mostly Cloudy
10:53 PM 73.9 °F 39.9 °F 29% 29.89 in 10.0 mi South 5.8 mph - N/A   Clear
11:53 PM 69.1 °F 42.1 °F 38% 29.90 in 10.0 mi Calm Calm - N/A   Clear